COSMOS 951

导读

**COSMOS 951卫星摘要** COSMOS 951是前苏联(现归属CIS)于1977年9月13日发射的军用卫星,隶属于苏联标志性的“宇宙”卫星系列。该系列是冷战时期苏联航天领域的核心项目,多承担军事侦察、信号监测或空间科研任务,任务细节长期保密。作为冷战军备竞赛背景下的产物,它反映了当时苏联在空间技术领域的战略布局,目前已完成在轨运行使命,体现了那一时期航天发展的时代特征。(118字)

Basic Information
目录编号:
10352
目录名称:
COSMOS 951
国际标识:
1977-087A
轨道中心:
EARTH
卫星名称:
COSMOS 951
卫星全名:
--
卫星状态:
在轨 (已飞行17899 天)
发射日期:
1977-09-13 UTC
国别 :
俄罗斯(独联体) (CIS)
星等 :
--
This satellite is enrolled in the Space Conjunction Data Service (SCDS) and the current flight risk assessment level is: No High Risk
Orbit Information
数据来源 国际轨道数据 AOE轨道数据
星历时间 2026-09-15T08:49:50+0800
22小时前
查看轨道信息
2026-09-13T17:00:00+0800
2天前
查看轨道信息
半长轴 7362.135km 7362.135km
偏心率 0.0035087 0.0034918
轨道倾角 82.966° 82.966°
近地点辐角 121.334° 126.474°
升交点赤经 106.073° 107.296°
平近点角 30.636° 98.970°
近地点 958.166km 958.29km
远地点 1009.83km 1009.706km
周期 104.777分钟 104.777分钟
每日圈数 13.743494 13.743494
Detailed Information
使用方式:
暂无
2D Orbit Map
3D Orbit Map
Orbit Altitude Analysis Chart
Orbit Inclination Analysis Chart
Orbit Comprehensive Analysis Chart
View Comprehensive Chart
Conjunction Data List
Event ID Objects TCA Miss Dist (km) Collision Risk Probability Collision Risk Index (CRI) Action
CDM_260917-171200-494501-035223
2026-09-17T
17:12:51+0000
2.792 km
极远距离
1.42854E-6 低风险 0.38
Miss Distance Evolution Trend with All Objects Subscribe to Flight Safety Assessment
Collision Probability Evolution Trend with All Objects Subscribe to Flight Safety Assessment